FW2265 Weather Reports


time (UTC)temp
F
wind
direction
speed
knots
gust
knots
rain 1hr
in
rain 24hr
in
rain mn
in
humidity
%
barometer
mb
20260505123822 74 225 0.0 1.7 0.00 0.00 0.00 88 1009.9
20260505123724 74 225 0.0 0.0 0.00 0.00 0.00 88 1010.0
20260505122723 74 157 0.0 1.7 0.00 0.00 0.00 88 1009.5
20260505120723 74 205 0.0 2.6 0.00 0.00 0.00 88 1010.0
20260505115723 74 217 0.9 3.5 0.00 0.00 0.00 88 1010.0
20260505114723 73 185 0.0 0.0 0.00 0.00 0.00 87 1009.8
20260505113822 73 239 0.0 0.9 0.00 0.00 0.00 88 1009.9
20260505113723 73 247 0.0 0.0 0.00 0.00 0.00 88 1009.9
20260505112724 73 225 0.0 1.7 0.00 0.00 0.00 88 1009.6
20260505111724 73 197 0.0 1.7 0.00 0.00 0.00 88 1009.8
20260505110723 73 202 0.0 1.7 0.00 0.00 0.00 87 1010.1
20260505101923 73 225 0.0 0.9 0.00 0.00 0.00 87 1009.9
20260505100924 73 211 0.9 1.7 0.00 0.00 0.00 87 1009.7
20260505095923 73 225 0.0 1.7 0.00 0.00 0.00 86 1009.7
20260505095023 73 225 0.0 0.9 0.00 0.00 0.00 87 1009.6
20260505094024 73 225 0.0 0.9 0.00 0.00 0.00 86 1010.1
20260505093022 73 203 0.0 0.9 0.00 0.00 0.00 86 1010.1
20260505092924 73 221 1.7 3.5 0.00 0.00 0.00 87 1010.1
20260505091923 73 180 0.0 0.0 0.00 0.00 0.00 86 1009.9
20260505091822 73 180 0.0 0.0 0.00 0.00 0.00 86 1010.0
20260505090823 73 225 0.9 1.7 0.00 0.00 0.00 86 1010.1
20260505085823 73 225 0.0 2.6 0.00 0.00 0.00 85 1010.1
20260505085725 73 225 0.0 0.9 0.00 0.00 0.00 85 1010.1
20260505084723 73 207 0.0 0.9 0.00 0.00 0.00 85 1010.1
20260505083723 73 225 0.9 1.7 0.00 0.00 0.00 85 1010.0
20260505082722 73 225 0.0 1.7 0.00 0.00 0.00 84 1010.2
20260505081723 73 193 0.9 2.6 0.00 0.00 0.00 83 1010.2
20260505080722 73 214 0.9 2.6 0.00 0.00 0.00 84 1010.3
20260505075722 73 216 0.9 2.6 0.00 0.00 0.00 84 1010.4
20260505075623 73 225 0.9 1.7 0.00 0.00 0.00 84 1010.3
20260505074622 73 225 0.0 0.0 0.00 0.00 0.00 84 1010.4
20260505073623 73 224 0.0 0.9 0.00 0.00 0.00 84 1010.4
20260505072722 73 215 0.0 2.6 0.00 0.00 0.00 83 1010.5
20260505070823 72 225 0.9 2.6 0.00 0.00 0.00 84 1010.6
20260505065824 72 216 0.9 2.6 0.00 0.00 0.00 84 1010.9
20260505064822 72 190 0.0 1.7 0.00 0.00 0.00 84 1011.1
20260505063822 72 225 0.0 0.0 0.00 0.00 0.00 84 1011.0
20260505062823 71 225 0.0 0.0 0.00 0.00 0.00 84 1011.4
20260505061824 72 233 0.0 0.0 0.00 0.00 0.00 84 1011.3
20260505060823 72 204 0.0 0.9 0.00 0.00 0.00 83 1011.5
20260505054824 72 202 0.0 0.9 0.00 0.00 0.00 83 1011.5
20260505053823 71 204 0.0 2.6 0.00 0.00 0.00 82 1011.6
20260505052823 72 202 0.9 1.7 0.00 0.00 0.00 81 1011.4
20260505051823 71 226 0.0 1.7 0.00 0.00 0.00 81 1011.6
20260505050823 71 218 0.9 1.7 0.00 0.00 0.00 81 1011.5
20260505041736 72 200 0.0 0.9 0.00 0.00 0.00 80 1012.3
20260505040834 72 202 0.0 3.5 0.00 0.00 0.00 80 1012.0
20260505035836 72 225 0.0 0.9 0.00 0.00 0.00 79 1012.3
20260505034934 72 224 0.9 1.7 0.00 0.00 0.00 79 1012.2
20260505033934 72 221 0.0 1.7 0.00 0.00 0.00 78 1012.4
20260505032034 72 247 0.0 0.9 0.00 0.00 0.00 77 1012.3
20260505031033 72 202 0.9 1.7 0.00 0.00 0.00 77 1012.4
20260505030038 72 189 0.0 0.9 0.00 0.00 0.00 76 1012.3
20260505025034 72 145 0.0 0.9 0.00 0.00 0.00 75 1012.4
20260505024035 72 202 0.0 0.9 0.00 0.00 0.00 74 1012.3
20260505023037 73 186 0.0 0.9 0.00 0.00 0.00 74 1012.2
20260505022035 73 225 0.0 1.7 0.00 0.00 0.00 74 1012.2
20260505021036 73 225 0.0 0.0 0.00 0.00 0.00 72 1012.0
20260505020037 73 215 1.7 3.5 0.00 0.00 0.00 73 1012.0
20260505015036 74 225 0.0 1.7 0.00 0.00 0.00 73 1012.0
20260505014934 74 223 0.9 3.5 0.00 0.00 0.00 73 1011.8
20260505013934 73 195 0.9 1.7 0.00 0.00 0.00 72 1011.9
20260505012936 73 221 0.9 2.6 0.00 0.00 0.00 73 1011.8
20260505011934 74 195 0.0 0.9 0.00 0.00 0.00 72 1011.9
20260505010936 74 200 0.9 2.6 0.00 0.00 0.00 71 1011.8
20260505005933 74 217 0.0 1.7 0.00 0.00 0.00 70 1011.8
20260505004934 74 186 0.0 1.7 0.00 0.00 0.00 70 1011.7
20260505002935 75 205 0.0 2.6 0.00 0.00 0.00 68 1011.6
20260505001933 75 201 0.9 3.5 0.00 0.00 0.00 67 1011.6
20260504235936 76 134 0.0 0.0 0.00 0.00 0.00 66 1011.9
20260504234033 76 216 1.7 6.1 0.00 0.00 0.00 65 1011.8
20260504233039 77 223 1.7 3.5 0.00 0.00 0.00 65 1011.9
20260504232035 77 220 1.7 3.5 0.00 0.00 0.00 65 1012.1
20260504231034 77 132 0.0 0.9 0.00 0.00 0.00 64 1012.1
20260504230038 77 161 0.0 2.6 0.00 0.00 0.00 64 1012.4
20260504225035 77 197 0.0 1.7 0.00 0.00 0.00 64 1012.5
20260504223036 77 189 0.0 2.6 0.00 0.00 0.00 63 1012.7
20260504221035 77 184 0.9 3.5 0.00 0.00 0.00 62 1012.8
20260504220036 78 178 0.9 4.3 0.00 0.00 0.00 61 1012.8
20260504215036 78 202 0.9 1.7 0.00 0.00 0.00 60 1013.0
20260504214033 79 201 1.7 4.3 0.00 0.00 0.00 60 1013.2
20260504213036 79 180 0.0 0.0 0.00 0.00 0.00 59 1013.1
20260504212133 80 161 0.0 1.7 0.00 0.00 0.00 57 1013.1
20260504211136 81 213 0.9 1.7 0.00 0.00 0.00 56 1013.2
20260504205235 81 195 0.9 4.3 0.00 0.00 0.00 56 1013.3
20260504204235 81 220 0.9 2.6 0.00 0.00 0.00 54 1013.6
20260504203233 81 198 0.9 2.6 0.00 0.00 0.00 54 1013.7
20260504203134 81 216 1.7 4.3 0.00 0.00 0.00 54 1013.8
20260504202233 81 207 0.0 1.7 0.00 0.00 0.00 54 1013.8
20260504201235 81 211 1.7 4.3 0.00 0.00 0.00 53 1014.0
20260504200236 82 208 0.0 3.5 0.00 0.00 0.00 53 1014.0
20260504195333 81 225 0.0 0.9 0.00 0.00 0.00 52 1014.0
20260504193434 83 191 0.0 0.0 0.00 0.00 0.00 51 1014.4
20260504192434 83 217 0.9 2.6 0.00 0.00 0.00 50 1014.7
20260504191435 82 190 0.0 0.9 0.00 0.00 0.00 52 1014.8
20260504185534 81 194 1.7 4.3 0.00 0.00 0.00 51 1014.9
20260504184537 82 161 0.0 3.5 0.00 0.00 0.00 52 1014.7
20260504183533 81 228 0.9 3.5 0.00 0.00 0.00 52 1014.7
20260504181536 81 223 0.9 2.6 0.00 0.00 0.00 51 1015.2
20260504180534 80 188 0.0 2.6 0.00 0.00 0.00 54 1015.3
20260504175533 80 180 0.0 0.9 0.00 0.00 0.00 52 1015.4
20260504174536 81 173 0.0 1.7 0.00 0.00 0.00 51 1015.3
20260504173536 81 201 0.9 4.3 0.00 0.00 0.00 52 1015.7
20260504172536 81 214 2.6 5.2 0.00 0.00 0.00 51 1015.9
20260504171635 80 183 0.0 1.7 0.00 0.00 0.00 53 1015.7
20260504170733 79 206 0.9 2.6 0.00 0.00 0.00 54 1016.2
20260504151034 76 191 0.0 2.6 0.00 0.00 0.00 60 1016.8
20260504141132 72 203 0.0 2.6 0.00 0.00 0.00 65 1016.8
20260504141033 72 225 0.9 1.7 0.00 0.00 0.00 65 1016.8